Terug naar catalogus

GGSE 5

ActiefNavigatieLEO
NORAD 2834·PAYLOAD·🇺🇸 United States

Gelanceerd May 31, 1967 vanaf Vandenberg Space Force Base

Loading…

Volgende Passages (komende 24 uur)

TLE

VersSource: Space-Track

Epoch: Sep 14, 2026, 13:52 UTC

1 02834U 67053D   26257.57791730 -.00000010  00000-0  31727-4 0  9995
2 02834  69.9725 301.6431 0004576  94.1193 266.0436 13.96199772 18622

Volg GGSE 5 in realtime met AllMySat

Download on the App Store